User: anonymous   Login
Location: Caltech
(34.1382°N, 118.1253°W)
Time: 21:54:14
(UTC-07:00)
Language:

PANSAT - Orbit

View from above orbital plane
View from above orbital plane
View from above satellite
View from above satellite

Ground track
Ground track

The orbit data is extracted from the following two-line orbital elements,

1 25520U 98064B   16274.50718399  .00001548  00000-0  47272-4 0  9997
2 25520  28.4581 312.5002 0005379   7.6915 352.3762 15.27931555994529
Epoch (UTC): 30 September 2016 12:10:20
Eccentricity: 0.0005379
inclination: 28.4581°
perigee height: 478 km
apogee height: 485 km
right ascension of ascending node: 312.5002°
argument of perigee: 7.6915°
revolutions per day: 15.27931555
mean anomaly at epoch: 352.3762°
orbit number at epoch: 99452

The dashed part of the orbit path shows where the satellite is in the earth's shadow,  

DLR